Time,TemperatureF,DewpointF,PressureIn,WindDirection,WindDirectionDegrees,WindSpeedMPH,WindSpeedGustMPH,Humidity,HourlyPrecipIn,Conditions,Clouds,dailyrainin,SoftwareType,DateUTC
2013-12-29 07:55:00,69.3,65.2,29.99,North,2,17.0,32.0,87,0.00,,,0.31,Weather View 32 v70,2013-12-29 17:55:00,
2013-12-29 08:00:00,69.4,65.3,29.98,NNW,345,16.0,32.0,87,0.00,,,0.31,Weather View 32 v70,2013-12-29 18:00:00,
2013-12-29 08:05:00,69.5,65.1,29.98,North,1,21.0,33.0,86,0.00,,,0.31,Weather View 32 v70,2013-12-29 18:05:00,
2013-12-29 08:10:00,69.6,65.2,29.99,NNE,12,20.0,33.0,86,0.00,,,0.31,Weather View 32 v70,2013-12-29 18:10:00,
2013-12-29 08:15:00,69.6,65.2,29.98,NNE,25,17.0,33.0,86,0.00,,,0.31,Weather View 32 v70,2013-12-29 18:15:00,
2013-12-29 08:24:00,69.7,65.0,29.99,NNW,337,24.0,33.0,85,0.00,,,0.31,Weather View 32 v70,2013-12-29 18:24:00,
2013-12-29 08:29:00,69.7,65.0,30.00,North,11,13.0,33.0,85,0.00,,,0.31,Weather View 32 v70,2013-12-29 18:29:00,
2013-12-29 08:34:00,69.7,65.3,30.00,North,1,20.0,33.0,86,0.00,,,0.31,Weather View 32 v70,2013-12-29 18:34:00,
2013-12-29 08:39:00,69.4,65.3,30.01,NNE,14,20.0,33.0,87,0.00,,,0.31,Weather View 32 v70,2013-12-29 18:39:00,
2013-12-29 08:44:00,69.0,65.3,30.00,North,3,17.0,33.0,88,0.00,,,0.31,Weather View 32 v70,2013-12-29 18:44:00,
2013-12-29 08:49:00,69.0,65.3,30.00,North,1,15.0,33.0,88,0.00,,,0.31,Weather View 32 v70,2013-12-29 18:49:00,
2013-12-29 08:54:00,69.1,65.1,30.00,North,9,24.0,33.0,87,0.00,,,0.31,Weather View 32 v70,2013-12-29 18:54:00,
2013-12-29 08:59:00,69.3,64.9,30.01,NNE,12,13.0,33.0,86,0.00,,,0.31,Weather View 32 v70,2013-12-29 18:59:00,
2013-12-29 09:04:00,69.4,64.7,30.01,NNW,343,13.0,32.0,85,0.00,,,0.31,Weather View 32 v70,2013-12-29 19:04:00,
2013-12-29 09:09:00,69.7,64.6,30.01,NNE,16,18.0,32.0,84,0.00,,,0.31,Weather View 32 v70,2013-12-29 19:09:00,
2013-12-29 09:14:00,69.9,65.2,30.00,NNE,25,18.0,30.0,85,0.00,,,0.31,Weather View 32 v70,2013-12-29 19:14:00,
2013-12-29 09:19:00,69.6,65.2,30.01,North,8,22.0,30.0,86,0.00,,,0.31,Weather View 32 v70,2013-12-29 19:19:00,
2013-12-29 09:24:00,69.1,64.7,30.01,NNW,347,19.0,30.0,86,0.00,,,0.31,Weather View 32 v70,2013-12-29 19:24:00,
2013-12-29 09:29:00,69.0,64.6,30.01,North,1,13.0,30.0,86,0.00,,,0.31,Weather View 32 v70,2013-12-29 19:29:00,
2013-12-29 09:34:00,69.1,64.7,30.00,North,353,28.0,30.0,86,0.00,,,0.31,Weather View 32 v70,2013-12-29 19:34:00,
2013-12-29 09:39:00,69.3,64.9,30.00,NW,324,17.0,32.0,86,0.00,,,0.31,Weather View 32 v70,2013-12-29 19:39:00,
2013-12-29 09:44:00,69.5,65.1,30.01,North,357,18.0,32.0,86,0.00,,,0.31,Weather View 32 v70,2013-12-29 19:44:00,
2013-12-29 09:49:00,69.6,64.9,30.00,North,4,21.0,32.0,85,0.00,,,0.31,Weather View 32 v70,2013-12-29 19:49:00,
2013-12-29 09:54:00,69.8,64.7,30.02,North,353,23.0,32.0,84,0.00,,,0.31,Weather View 32 v70,2013-12-29 19:54:00,
2013-12-29 09:55:00,69.8,64.7,30.02,North,4,20.0,32.0,84,0.00,,,0.31,Weather View 32 v70,2013-12-29 19:55:00,
2013-12-29 10:00:00,69.8,64.7,29.99,North,9,29.0,32.0,84,0.00,,,0.31,Weather View 32 v70,2013-12-29 20:00:00,
2013-12-29 10:05:00,69.8,65.1,30.00,North,8,23.0,32.0,85,0.00,,,0.31,Weather View 32 v70,2013-12-29 20:05:00,
2013-12-29 10:10:00,69.8,65.1,30.00,North,1,24.0,32.0,85,0.00,,,0.31,Weather View 32 v70,2013-12-29 20:10:00,
2013-12-29 10:15:00,69.6,65.2,30.01,NNW,339,14.0,32.0,86,0.00,,,0.31,Weather View 32 v70,2013-12-29 20:15:00,
2013-12-29 10:17:00,69.5,65.4,30.01,NNE,14,17.0,32.0,87,0.00,,,0.31,Weather View 32 v70,2013-12-29 20:17:00,
2013-12-29 10:18:00,69.5,65.4,30.01,NNE,15,16.0,32.0,87,0.29,,,0.31,Weather View 32 v70,2013-12-29 20:18:00,
2013-12-29 10:20:00,69.4,65.0,30.01,NNE,16,19.0,32.0,86,0.00,,,0.31,Weather View 32 v70,2013-12-29 20:20:00,
2013-12-29 10:28:00,69.5,65.4,30.01,NE,41,14.0,32.0,87,0.00,,,0.31,Weather View 32 v70,2013-12-29 20:28:00,
2013-12-29 10:33:00,69.2,65.2,29.99,North,8,25.0,32.0,87,0.00,,,0.31,Weather View 32 v70,2013-12-29 20:33:00,
2013-12-29 10:38:00,68.9,64.5,30.00,North,6,15.0,33.0,86,0.00,,,0.31,Weather View 32 v70,2013-12-29 20:38:00,
2013-12-29 10:43:00,68.8,64.4,30.00,North,359,17.0,33.0,86,0.00,,,0.31,Weather View 32 v70,2013-12-29 20:43:00,
2013-12-29 10:48:00,69.1,65.1,30.00,NNE,22,13.0,33.0,87,0.00,,,0.31,Weather View 32 v70,2013-12-29 20:48:00,
2013-12-29 10:53:00,69.1,65.1,29.98,NNW,347,21.0,33.0,87,0.00,,,0.31,Weather View 32 v70,2013-12-29 20:53:00,
2013-12-29 10:58:00,69.2,65.2,30.00,NNE,33,18.0,33.0,87,0.00,,,0.31,Weather View 32 v70,2013-12-29 20:58:00,
2013-12-29 11:03:00,69.5,64.8,29.99,North,8,24.0,36.0,85,0.00,,,0.31,Weather View 32 v70,2013-12-29 21:03:00,
2013-12-29 11:09:00,69.9,64.8,29.99,NNE,14,23.0,36.0,84,0.00,,,0.31,Weather View 32 v70,2013-12-29 21:09:00,
2013-12-29 11:14:00,69.8,64.7,29.98,NNW,346,24.0,36.0,84,0.00,,,0.31,Weather View 32 v70,2013-12-29 21:14:00,
2013-12-29 11:19:00,69.9,64.8,29.97,North,7,22.0,36.0,84,0.00,,,0.31,Weather View 32 v70,2013-12-29 21:19:00,
2013-12-29 11:24:00,69.9,64.5,29.97,North,11,22.0,36.0,83,0.00,,,0.31,Weather View 32 v70,2013-12-29 21:24:00,
2013-12-29 11:29:00,70.1,64.7,29.97,NNE,18,25.0,36.0,83,0.00,,,0.31,Weather View 32 v70,2013-12-29 21:29:00,
2013-12-29 11:34:00,70.4,64.6,29.96,North,4,25.0,36.0,82,0.00,,,0.31,Weather View 32 v70,2013-12-29 21:34:00,
2013-12-29 11:39:00,70.0,64.9,29.97,NNE,24,21.0,36.0,84,0.00,,,0.31,Weather View 32 v70,2013-12-29 21:39:00,
2013-12-29 11:44:00,69.2,64.8,29.97,North,355,24.0,36.0,86,0.00,,,0.31,Weather View 32 v70,2013-12-29 21:44:00,
2013-12-29 11:49:00,68.8,64.4,29.95,North,357,30.0,36.0,86,0.00,,,0.31,Weather View 32 v70,2013-12-29 21:49:00,
2013-12-29 11:54:00,68.8,64.8,29.97,NNW,343,20.0,36.0,87,0.00,,,0.31,Weather View 32 v70,2013-12-29 21:54:00,
2013-12-29 11:59:00,69.1,65.1,29.97,North,354,13.0,36.0,87,0.00,,,0.31,Weather View 32 v70,2013-12-29 21:59:00,
2013-12-29 12:00:00,69.2,65.2,29.97,North,4,17.0,36.0,87,0.00,,,0.31,Weather View 32 v70,2013-12-29 22:00:00,
2013-12-29 12:01:00,69.2,65.2,29.97,NNE,24,16.0,36.0,87,0.00,,,0.31,Weather View 32 v70,2013-12-29 22:01:00,
2013-12-29 12:05:00,69.4,65.0,29.96,North,360,26.0,33.0,86,0.00,,,0.31,Weather View 32 v70,2013-12-29 22:05:00,
2013-12-29 12:11:00,69.3,65.2,29.96,North,6,25.0,36.0,87,0.00,,,0.31,Weather View 32 v70,2013-12-29 22:11:00,
2013-12-29 12:16:00,69.5,64.8,29.96,North,8,19.0,33.0,85,0.00,,,0.31,Weather View 32 v70,2013-12-29 22:16:00,
2013-12-29 12:21:00,69.5,64.8,29.96,North,2,23.0,33.0,85,0.00,,,0.31,Weather View 32 v70,2013-12-29 22:21:00,
2013-12-29 12:26:00,69.4,64.7,29.96,North,356,15.0,33.0,85,0.00,,,0.31,Weather View 32 v70,2013-12-29 22:26:00,
2013-12-29 12:31:00,69.4,64.7,29.96,NW,324,13.0,33.0,85,0.00,,,0.31,Weather View 32 v70,2013-12-29 22:31:00,
2013-12-29 12:36:00,69.2,64.5,29.94,North,10,25.0,33.0,85,0.00,,,0.31,Weather View 32 v70,2013-12-29 22:36:00,
2013-12-29 12:41:00,68.9,64.9,29.95,NNE,20,7.0,33.0,87,0.01,,,0.32,Weather View 32 v70,2013-12-29 22:41:00,
2013-12-29 12:46:00,69.0,65.3,29.95,NNW,328,18.0,30.0,88,0.01,,,0.32,Weather View 32 v70,2013-12-29 22:46:00,
2013-12-29 12:51:00,69.2,65.2,29.95,North,349,14.0,29.0,87,0.01,,,0.32,Weather View 32 v70,2013-12-29 22:51:00,
2013-12-29 12:56:00,69.4,65.0,29.94,NNW,334,19.0,29.0,86,0.01,,,0.32,Weather View 32 v70,2013-12-29 22:56:00,
2013-12-29 13:01:00,69.3,64.6,29.92,NNW,345,25.0,29.0,85,0.01,,,0.32,Weather View 32 v70,2013-12-29 23:01:00,
2013-12-29 13:06:00,69.5,64.8,29.93,NNW,348,24.0,29.0,85,0.01,,,0.32,Weather View 32 v70,2013-12-29 23:06:00,
2013-12-29 13:11:00,69.7,65.0,29.92,North,7,25.0,29.0,85,0.01,,,0.32,Weather View 32 v70,2013-12-29 23:11:00,
2013-12-29 13:16:00,69.8,64.7,29.93,North,357,17.0,29.0,84,0.01,,,0.32,Weather View 32 v70,2013-12-29 23:16:00,
2013-12-29 13:21:00,70.0,64.9,29.92,North,2,19.0,29.0,84,0.01,,,0.32,Weather View 32 v70,2013-12-29 23:21:00,
2013-12-29 13:26:00,70.1,65.0,29.92,North,8,24.0,29.0,84,0.01,,,0.32,Weather View 32 v70,2013-12-29 23:26:00,
2013-12-29 13:31:00,70.0,64.9,29.92,North,357,22.0,29.0,84,0.01,,,0.32,Weather View 32 v70,2013-12-29 23:31:00,
2013-12-29 13:36:00,69.9,65.2,29.93,NNE,24,17.0,29.0,85,0.01,,,0.32,Weather View 32 v70,2013-12-29 23:36:00,